This demonstration page uses our WeatherBlox Daily Observations layout. Learn more.

Hourly Observations for September 20, 2019

Temp ( °F °C ) Dew Point ( °F °C ) Humidity (%) Winds ( mph kmh ) Pressure ( in mb ) Visibility ( mi km ) Precip ( " mm )
12:53 am 00:53 Mostly Clear 68 20 57 13.9 68 68 undefined N/A 29.71 1006 10 16.09344 0.001 0.001
1:53 am 01:53 Clear 65 18.3 57 13.9 76 76 ESE 9 15 29.71 1006 10 16.09344 0 0
2:53 am 02:53 Clear 69 20.6 54 12.2 59 59 SE 15 24 29.68 1005 10 16.09344 0 0
3:53 am 03:53 Clear 68 20 55 12.8 63 63 SSE 16 26 29.65 1004 10 16.09344 0 0
4:53 am 04:53 Clear 65 18.3 56 13.3 73 73 SE 9 15 29.65 1004 10 16.09344 0 0
5:53 am 05:53 Clear 64 17.8 56 13.3 75 75 E 7 11 29.68 1005 10 16.09344 0 0
6:53 am 06:53 Sunny 63 17.2 56 13.3 78 78 ESE 7 11 29.68 1005 10 16.09344 0 0
7:53 am 07:53 Sunny 61 16.1 56 13.3 84 84 SE 9 15 29.68 1005 10 16.09344 0 0
8:53 am 08:53 Sunny 65 18.3 57 13.9 76 76 SE 12 19 29.68 1005 10 16.09344 0 0
9:53 am 09:53 Sunny 71 21.7 58 14.4 63 63 ESE 10 17 29.65 1004 10 16.09344 0 0
10:53 am 10:53 Sunny 76 24.4 57 13.9 52 52 SSE 12 19 29.62 1003 10 16.09344 0 0
11:53 am 11:53 Sunny 79 26.1 58 14.4 49 49 SSE 12 19 29.59 1002 10 16.09344 0 0
12:53 pm 12:53 Sunny 83 28.3 57 13.9 41 41 S 9 15 29.59 1002 10 16.09344 0 0
1:53 pm 13:53 Sunny 85 29.4 56 13.3 37 37 VRB 5 7 29.56 1001 10 16.09344 0 0
2:53 pm 14:53 Sunny 88 31.1 42 5.6 20 20 E 6 9 29.53 1000 10 16.09344 0 0
3:53 pm 15:53 Mostly Sunny 89 31.7 47 8.3 23 23 VRB 6 9 29.5 999 10 16.09344 0 0
4:36 pm 16:36 Partly Cloudy with Nearby Thunderstorms 83 28.3 57 13.9 41 41 ESE 22 35 29.35 994 10 16.09344 0 0
4:53 pm 16:53 Partly Cloudy with Nearby Thunderstorms 82 27.8 57 13.9 42 42 ESE 21 33 29.5 999 10 16.09344 0 0
5:53 pm 17:53 Mostly Cloudy with Nearby Thunderstorms 67 19.4 52 11.1 59 59 N 25 41 29.56 1001 10 16.09344 0 0
6:02 pm 18:02 Partly Cloudy 64 18 54 12 68 68 N 26 43 29.53 1000 10 16.09344 0 0
6:53 pm 18:53 Sunny 66 18.9 48 8.9 52 52 NNE 21 33 29.56 1001 10 16.09344 0 0
7:53 pm 19:53 Clear 66 18.9 48 8.9 52 52 NE 12 19 29.59 1002 10 16.09344 0 0
8:53 pm 20:53 Partly Cloudy 65 18.3 49 9.4 56 56 WNW 9 15 29.62 1003 10 16.09344 0 0
9:09 pm 21:09 Mostly Cloudy with Thunderstorms 66 18.9 49 9.4 54 54 W 13 20 29.59 1002 10 16.09344 0 0
9:30 pm 21:30 Mostly Cloudy with Nearby Thunderstorms 64 18 50 10 60 60 NNW 7 11 29.59 1002 10 16.09344 0 0
9:53 pm 21:53 Clear 62 16.7 50 10 65 65 NW 10 17 29.62 1003 10 16.09344 0.001 0.001
10:53 pm 22:53 Clear 64 17.8 47 8.3 54 54 WNW 9 15 29.65 1004 10 16.09344 0 0
11:53 pm 23:53 Clear 59 15 49 9.4 69 69 WNW 7 11 29.68 1005 10 16.09344 0 0

Powered by AerisWeather